Location: Newark
(51.0500°N, 12.4500°E)
Time: 12:22:41
(UTC+00:00)

Vanguard 1 - Pass Details

Date: 23 February 2020
Orbit: 649 x 3833 km, 34.2° (Epoch: 05 April)

Event Time Altitude Azimuth Distance (km) Brightness Sun altitude
Rises 03:56:43 0° 181° (S) 7,882 14.6 -21.4°
Reaches altitude 10° 04:06:24 10° 162° (SSE) 6,921 14.5 -19.9°
Maximum altitude 04:16:13 15° 136° (SE) 6,282 14.6 -18.4°
Drops below altitude 10° 04:25:03 10° 110° (ESE) 6,218 15.1 -17.0°
Sets 04:32:31 0° 90° (E) 6,656 16.2 -15.8°
